Meteo Giornale » Osservazioni meteo Stati Uniti (USA) » Kickapoo
ore: 15:55 - Osservazioni Meteo Kickapoo
Lat. 33° 51' N Lon. 98° 29' W Alt. 305 metri s.l.m.
37 °C
Sereno
Temp. 24 Ore
24 °C
39 °C
Sud/Sud-Est
25.9 Km/h
Dew point 14 °C
Umidità 25 %
Visibilità 10 Km
Il sole sorge alle ore 07:07
Il sole tramonta alle ore 20:01
| Data e Ora | Cielo e Fenomeni | T °C | DP °C | Um. % | Pres. hPa | Vis. km | Vento km/h | |
|---|---|---|---|---|---|---|---|---|
| Oggi h: 15:55 | Sereno | 37 | 14 | 25 | 1014 | 10 | S/SE 25.9 | |
| Oggi h: 15:35 | Sereno | 36 | 14 | 26 | 1015 | 10 | SE 7.4 | |
| Oggi h: 15:15 | Sereno | 38 | 14 | 24 | 1015 | 10 | S 22.2 | |
| Oggi h: 14:55 | Sereno | 37 | 14 | 25 | 1015 | 10 | N 5.5 | |
| Oggi h: 14:35 | Sereno | 37 | 14 | 25 | 1015 | 10 | E/SE 11.1 | |
| Oggi h: 14:15 | Sereno | 37 | 14 | 25 | 1016 | 10 | S/SE 16.7 | |
| Oggi h: 13:55 | Sereno | 37 | 14 | 25 | 1016 | 10 | S 16.7 | |
| Oggi h: 13:35 | Sereno | 36 | 13 | 25 | 1016 | 10 | SE 16.7 | |
| Oggi h: 13:15 | Sereno | 35 | 15 | 30 | 1016 | 10 | S/SE 13 | |
| Oggi h: 12:55 | Sereno | 36 | 16 | 30 | 1017 | 10 | S/SE 11.1 | |
| Oggi h: 12:35 | Sereno | 36 | 17 | 32 | 1017 | 10 | S/SE 14.8 | |
| Oggi h: 12:15 | Sereno | 35 | 17 | 34 | 1017 | 10 | S/SE 24 | |
| Oggi h: 11:55 | Sereno | 35 | 17 | 34 | 1017 | 10 | S 20.3 | |
| Oggi h: 11:35 | Sereno | 35 | 17 | 34 | 1017 | 10 | S/SO 13 | |
| Oggi h: 11:15 | Sereno | 34 | 18 | 38 | 1017 | 10 | SO 11.1 | |
| Oggi h: 10:55 | Sereno | 33 | 18 | 41 | 1017 | 10 | S 16.7 | |
| Oggi h: 10:35 | Sereno | 33 | 18 | 41 | 1017 | 10 | S/SO 13 | |
| Oggi h: 10:15 | Sereno | 32 | 18 | 43 | 1017 | 10 | S 11.1 | |
| Oggi h: 09:55 | Sereno | 32 | 18 | 43 | 1017 | 10 | S 16.7 | |
| Oggi h: 09:35 | Sereno | 31 | 19 | 48 | 1017 | 10 | S 14.8 | |
| Oggi h: 09:15 | Sereno | 30 | 19 | 51 | 1017 | 10 | S 16.7 | |
| Oggi h: 08:55 | Sereno | 28 | 19 | 58 | 1017 | 10 | S 9.3 | |
| Oggi h: 08:35 | Sereno | 27 | 19 | 61 | 1017 | 10 | S 11.1 | |
| Oggi h: 08:15 | Sereno | 26 | 18 | 61 | 1016 | 10 | S 7.4 | |
| Oggi h: 07:55 | Sereno | 26 | 18 | 61 | 1016 | 10 | N 5.5 | |
| Oggi h: 07:35 | Sereno | 25 | 17 | 61 | 1016 | 10 | N 0 | |
| Oggi h: 07:15 | Sereno | 24 | 17 | 64 | 1015 | 10 | N 5.5 | |
| Oggi h: 06:55 | Sereno | 25 | 17 | 61 | 1015 | 10 | N 5.5 | |
| Oggi h: 06:35 | Sereno | 24 | 16 | 60 | 1015 | 10 | S 7.4 | |
| Oggi h: 06:15 | Sereno | 25 | 16 | 57 | 1015 | 10 | N 5.5 | |
| Oggi h: 05:55 | Sereno | 24 | 16 | 60 | 1015 | 10 | S 9.3 | |
| Oggi h: 05:35 | Sereno | 25 | 16 | 57 | 1015 | 10 | S 9.3 | |
| Oggi h: 05:15 | Sereno | 25 | 16 | 57 | 1015 | 10 | S 9.3 | |
| Oggi h: 04:55 | Sereno | 26 | 16 | 54 | 1015 | 10 | S 9.3 | |
| Oggi h: 04:35 | Sereno | 26 | 16 | 54 | 1015 | 10 | S/SE 9.3 | |
| Oggi h: 04:15 | Sereno | 26 | 16 | 54 | 1014 | 10 | S/SE 11.1 | |
| Oggi h: 03:55 | Sereno | 26 | 16 | 54 | 1014 | 10 | S/SE 14.8 | |
| Oggi h: 03:35 | Sereno | 26 | 16 | 54 | 1014 | 10 | S 7.4 | |
| Oggi h: 03:15 | Sereno | 26 | 15 | 50 | 1014 | 10 | S/SE 9.3 | |
| Oggi h: 02:55 | Sereno | 26 | 15 | 50 | 1014 | 10 | S/SE 11.1 | |
| Oggi h: 02:35 | Sereno | 27 | 15 | 47 | 1014 | 10 | S 9.3 | |
| Oggi h: 02:15 | Sereno | 28 | 15 | 45 | 1014 | 10 | S/SE 11.1 | |
| Oggi h: 01:55 | Sereno | 29 | 15 | 42 | 1014 | 10 | S/SE 13 | |
| Oggi h: 01:35 | Sereno | 29 | 14 | 39 | 1014 | 10 | S/SE 16.7 | |
| Oggi h: 01:15 | Sereno | 30 | 14 | 37 | 1014 | 10 | S/SE 20.3 | |
| Oggi h: 00:55 | Sereno | 30 | 14 | 37 | 1014 | 10 | S 18.5 | |
| Oggi h: 00:35 | Sereno | 30 | 13 | 35 | 1014 | 10 | S 16.7 | |
| Oggi h: 00:15 | Sereno | 30 | 13 | 35 | 1014 | 10 | S/SE 18.5 | |
| Ieri h: 23:55 | Sereno | 30 | 13 | 35 | 1014 | 10 | S/SE 16.7 | |
| Ieri h: 23:35 | Sereno | 30 | 13 | 35 | 1014 | 10 | S/SE 20.3 | |
| Ieri h: 23:15 | Sereno | 30 | 13 | 35 | 1014 | 10 | S/SE 20.3 | |
| Ieri h: 22:55 | Sereno | 31 | 13 | 33 | 1014 | 10 | S/SE 22.2 | |
| Ieri h: 22:35 | Sereno | 32 | 13 | 31 | 1014 | 10 | S/SE 20.3 | |
| Ieri h: 22:15 | Sereno | 32 | 13 | 31 | 1014 | 10 | S/SE 20.3 | |
| Ieri h: 21:55 | Sereno | 32 | 13 | 31 | 1013 | 10 | S/SE 20.3 | |
| Ieri h: 21:35 | Sereno | 33 | 13 | 29 | 1013 | 10 | SE 16.7 | |
| Ieri h: 21:15 | Sereno | 33 | 13 | 29 | 1012 | 10 | SE 16.7 | |
| Ieri h: 20:55 | Sereno | 33 | 13 | 29 | 1012 | 10 | SE 14.8 | |
| Ieri h: 20:40 | Sereno | 34 | 13 | 28 | 1012 | 10 | S/SE 13 | |
| Ieri h: 20:15 | Sereno | 35 | 13 | 26 | 1012 | 10 | S/SE 14.8 | |
| Ieri h: 19:55 | Sereno | 36 | 13 | 25 | 1012 | 10 | S/SE 16.7 | |
| Ieri h: 19:35 | Sereno | 37 | 13 | 23 | 1011 | 10 | S/SE 22.2 | |
| Ieri h: 19:15 | Sereno | 38 | 13 | 22 | 1011 | 10 | S/SE 22.2 | |
| Ieri h: 18:55 | Sereno | 38 | 13 | 22 | 1011 | 10 | SE 18.5 | |
| Ieri h: 18:35 | Sereno | 39 | 13 | 21 | 1012 | 10 | S/SE 22.2 | |
| Ieri h: 18:15 | Sereno | 39 | 13 | 21 | 1012 | 10 | S 18.5 | |
| Ieri h: 17:55 | Sereno | 39 | 13 | 21 | 1012 | 10 | S 24 | |
| Ieri h: 17:35 | Sereno | 39 | 14 | 22 | 1012 | 10 | S 20.3 | |
| Ieri h: 17:15 | Sereno | 39 | 14 | 22 | 1012 | 10 | S 14.8 | |
| Ieri h: 16:55 | Sereno | 39 | 14 | 22 | 1012 | 10 | S 14.8 | |
| Ieri h: 16:35 | Sereno | 39 | 14 | 22 | 1012 | 10 | S 22.2 | |



